Showing default

NUSAT-35 (WILLIAMINA), 55048

Orbit data source: Space-Track

NUSAT-35 (WILLIAMINA), 55048 is a payload satellite owned by URUGUS S.A. (AR) in SSO that was launched on Tue, 03 Jan 2023 UTC via an FALCON 9 launch vehicle from the Air Force Eastern Test Range (AFETR). Payload-class satellites include a variety of spacecraft equipped with specific instruments for various scientific and technological missions. These include communications satellites like Starlink; space stations such as the ISS; scientific satellites like the Hubble; Earth observation satellites from companies like Planet Labs, Umbra, and HawkEye 360; GPS; miniature CubeSats for education and research; and military/defense satellites.

Loading next visibility...
Identifier
55048, 2023-001AR
Orbit
SSO
Country
Flag of UnknownUnknown / ARGN
Related business
Manufacturer
URUGUS S.A.
Mission
Operational Commercial Imaging
Bus & Motor
NEWSAT V, Unknown motor
Mass
41.5 kg wet, 38.5 kg dry
Launch date (UTC)
2023-01-03 (3 years ago)
Launch vehicle
FALCON 9
Launch site
Air Force Eastern Test Range (AFETR)
Object type
Payload
Rocket body
Debris
Shape & HBR
Box, 1.0 m
Radar Cross Section
0.542 m², Medium (>0.1 m² and < 1m²)

Expand to show TLE details & history
Last TLE update: 8 hours ago

TLE from 8 hours ago
0 NUSAT-35 (WILLIAMINA)
1 55048U 23001AR  26035.49222631  .00016454  00000-0  54392-3 0  9999
2 55048  97.2065  91.7538 0011567 209.2243 150.8353 15.31370438172075
Epoch: 2026-02-04T11:48Z
TLE epoch observation values (Epoch: 2026-02-04T11:48:48.353Z)
Latitude
-0.00001°
Longitude
139.8943°
Altitude
481.756 km
Speed
7.621 km/s
True Right ascension
06h 07m 00s
True Declination
0° 00' 00"
Sunlit
Object was in full shadow at epoch
Visualization orbit readout
Latitude
Unknown
Longitude
Unknown
Altitude
Unknown
Speed
Unknown
Apparent Right ascension
Unknown
Apparent Declination
Unknown
Sunlit
N/A
Visualization observer readout
Local Sidereal Time
21:39:24
Azimuth
Unknown
Elevation
Unknown
Doppler factor
Unknown
Orbital elements
Apogee altitude
476.584 km
Perigee altitude
460.745 km
Semi-major axis
6,846.802 km
Eccentricity
0.00116
Inclination
97.2065°
RAAN
91.7538°
Arg. of periapsis
209.2243°
True anomaly
150.89981°
Mean anomaly
150.8353°
Eccentric anomaly
150.86756°
Mean motion
3.83099 °/min
Orbital period
93.97 mins
BSTAR
0.00054392
Loading maneuver chart data...
Computing Atmospheric mass density...
Loading historical data...
Loading historical data...
Loading historical data...
Loading historical data...
Loading historical data...
Loading historical data...
Loading historical data...

Documentation

Showing up to 5 results
|